Bartlesville, OK

1:36 PM CDT on October 22, 2017 (GMT -0500)
Bartlesville Municipal

Weather History for KBVO - December, 2011

Change the Weather History Date:

Tuesday, December 27, 2011

  Actual Average Record
Temperature  
Mean Temperature 39 °F -  
Max Temperature 54 °F 48 °F 71 °F (2005)
Min Temperature 24 °F 28 °F 6 °F (1962)
Degree Days  
Heating Degree Days 26    
Moisture  
Dew Point 25 °F    
Average Humidity 60    
Maximum Humidity 88    
Minimum Humidity 28    
Precipitation  
Precipitation 0.00 in - - ()
Sea Level Pressure  
Sea Level Pressure 30.12 in    
Wind  
Wind Speed 5 mph (NW)    
Max Wind Speed 8 mph    
Max Gust Speed 17 mph    
Visibility 10 miles    
Events      
Averages and records for this station are not official NWS values.
T = Trace of Precipitation, MM = Missing Value Source: NWS Daily Summary

Daily Weather History Graph

Daily Weather History Graph

Search for Another Location

Airport or City:

Trip Planner

Search our weather history database for the weather conditions in past years. The results will help you decide how hot, cold, wet, or windy it might be!

Date:

Astronomy

Dec. 27, 2011 Rise Set
Actual Time 7:35 AM CST 5:14 PM CST
Civil Twilight 7:06 AM CST 5:43 PM CST
Nautical Twilight 6:34 AM CST 6:16 PM CST
Astronomical Twilight 6:02 AM CST 6:47 PM CST
Moon 9:35 AM CST (12/27) 8:44 PM CST (12/27)
Length of Visible Light 10h 37m
Length of Day
9h 39m
Waxing Crescent, 11% of the Moon is Illuminated
Dec 27
Waxing Crescent
Jan 1
First Quarter
Jan 9
Full
Jan 16
Last Quarter
Jan 23
New

Hourly Weather History & Observations

Time (CST) Temp. Windchill Dew Point Humidity Pressure Visibility Wind Dir Wind Speed Gust Speed Precip Events Conditions
12:53 AM 39.9 °F 34.5 °F 34.0 °F 79% 29.99 in 10.0 mi WNW 8.1 mph - N/A   Clear
1:53 AM 37.9 °F 32.7 °F 33.1 °F 83% 29.99 in 10.0 mi WNW 6.9 mph - N/A   Clear
2:53 AM 37.9 °F - 30.0 °F 73% 30.00 in 10.0 mi Calm Calm - N/A   Clear
3:53 AM 37.0 °F 33.3 °F 28.9 °F 73% 30.01 in 10.0 mi Variable 4.6 mph - N/A   Clear
4:53 AM 36.0 °F 32.1 °F 28.0 °F 73% 30.03 in 10.0 mi Variable 4.6 mph - N/A   Clear
5:53 AM 36.0 °F 33.3 °F 27.0 °F 70% 30.06 in 10.0 mi Variable 3.5 mph - N/A   Clear
6:53 AM 36.0 °F 32.1 °F 26.1 °F 67% 30.11 in 10.0 mi Variable 4.6 mph - N/A   Clear
7:53 AM 36.0 °F 32.1 °F 26.1 °F 67% 30.13 in 10.0 mi NW 4.6 mph - N/A   Clear
8:53 AM 39.9 °F 35.8 °F 27.0 °F 60% 30.15 in 10.0 mi Variable 5.8 mph - N/A   Clear
9:53 AM 44.1 °F 40.8 °F 26.1 °F 49% 30.17 in 10.0 mi Variable 5.8 mph - N/A   Clear
10:53 AM 48.9 °F - 26.1 °F 41% 30.18 in 10.0 mi Variable 5.8 mph - N/A   Clear
11:53 AM 53.1 °F - 21.9 °F 30% 30.16 in 10.0 mi Variable 5.8 mph - N/A   Clear
12:53 PM 54.0 °F - 23.0 °F 30% 30.14 in 10.0 mi NNW 8.1 mph - N/A   Clear
1:53 PM 54.0 °F - 23.0 °F 30% 30.13 in 10.0 mi Variable 5.8 mph 17.3 mph N/A   Clear
2:53 PM 54.0 °F - 21.0 °F 28% 30.12 in 10.0 mi WNW 4.6 mph - N/A   Clear
3:53 PM 52.0 °F - 21.0 °F 30% 30.14 in 10.0 mi Variable 3.5 mph - N/A   Clear
4:53 PM 48.9 °F - 21.0 °F 33% 30.14 in 10.0 mi Variable 3.5 mph - N/A   Clear
5:53 PM 37.9 °F - 21.9 °F 53% 30.16 in 10.0 mi Calm Calm - N/A   Clear
6:53 PM 32.0 °F - 21.9 °F 66% 30.17 in 10.0 mi Calm Calm - N/A   Clear
8:53 PM 28.9 °F - 21.9 °F 75% 30.17 in 10.0 mi Calm Calm - N/A   Clear
9:53 PM 25.0 °F - 21.0 °F 85% 30.16 in 10.0 mi Calm Calm - N/A   Clear
10:53 PM 24.1 °F - 21.0 °F 88% 30.18 in 10.0 mi Calm Calm - N/A   Clear
11:53 PM 24.1 °F - 21.0 °F 88% 30.17 in 10.0 mi Calm Calm - N/A   Clear